This is the latest recevied weather packets stored in our database for station/object OK2ILA-1. If no packets are shown the sender has not sent any weather packets the latest 10 day(s).
| Time | Temp. | Humidity | Pressure | Rain* | Wind** | Luminosity | Snow |
|---|---|---|---|---|---|---|---|
| 1778020773 | 16.67° C | 100% | 1007.7 hPa | 0 mm | - | - | - |
| 1778020052 | 16.67° C | 100% | 1007.7 hPa | 0 mm | - | - | - |
| 1778019331 | 16.67° C | 100% | 1007.7 hPa | 0 mm | - | - | - |
| 1778018611 | 16.67° C | 100% | 1007.7 hPa | 0 mm | - | - | - |
| 1778017890 | 17.22° C | 100% | 1007.8 hPa | 0 mm | - | - | - |
| 1778017169 | 17.22° C | 100% | 1007.9 hPa | 0 mm | - | - | - |
| 1778016449 | 17.78° C | 100% | 1008 hPa | 0 mm | - | - | - |
| 1778015728 | 17.78° C | 100% | 1007.8 hPa | 0 mm | - | - | - |
| 1778015007 | 18.33° C | 100% | 1007.8 hPa | 0 mm | - | - | - |
| 1778014287 | 18.33° C | 100% | 1007.8 hPa | 0 mm | - | - | - |
| 1778013566 | 18.33° C | 100% | 1007.8 hPa | 0 mm | - | - | - |
| 1778012845 | 18.89° C | 100% | 1007.8 hPa | 0 mm | - | - | - |
| 1778012124 | 18.33° C | 100% | 1007.8 hPa | 0 mm | - | - | - |
| 1778011404 | 18.89° C | 100% | 1007.9 hPa | 0 mm | - | - | - |
| 1778010683 | 19.44° C | 100% | 1007.9 hPa | 0 mm | - | - | - |
| 1778009962 | 19.44° C | 100% | 1007.9 hPa | 0 mm | - | - | - |
| 1778009242 | 20° C | 100% | 1007.8 hPa | 0 mm | - | - | - |
| 1778008521 | 20° C | 100% | 1007.8 hPa | 0 mm | - | - | - |
| 1778007800 | 20.56° C | 100% | 1007.8 hPa | 0 mm | - | - | - |
| 1778007080 | 20.56° C | 100% | 1007.8 hPa | 0 mm | - | - | - |
| 1778006359 | 20.56° C | 100% | 1007.7 hPa | 0 mm | - | - | - |
| 1778005638 | 20.56° C | 100% | 1007.6 hPa | 0 mm | - | - | - |
| 1778004918 | 21.11° C | 100% | 1007.7 hPa | 0 mm | - | - | - |
| 1778004197 | 21.67° C | 100% | 1007.5 hPa | 0 mm | - | - | - |
| 1778003476 | 22.22° C | 100% | 1007.4 hPa | 0 mm | - | - | - |
* Rain latest hour (hover to see other rain measurements)
** Current wind speed in m/s (hover to see current wind gust speed)